Time,TemperatureF,DewpointF,PressureIn,WindDirection,WindDirectionDegrees,WindSpeedMPH,WindSpeedGustMPH,Humidity,HourlyPrecipIn,Conditions,Clouds,dailyrainin,SoftwareType,DateUTC
2013-09-08 00:02:00,56.0,54.6,28.59,NE,45,4.0,7.0,95,0.00,,,0.00,Weather View 32 v70,2013-09-08 07:02:00,
2013-09-08 00:08:00,56.0,54.3,28.59,NE,45,1.0,7.0,94,0.00,,,0.00,Weather View 32 v70,2013-09-08 07:08:00,
2013-09-08 00:13:00,56.0,54.6,28.59,NE,45,1.0,6.0,95,0.00,,,0.00,Weather View 32 v70,2013-09-08 07:13:00,
2013-09-08 00:18:00,56.0,54.9,28.59,NE,45,4.0,6.0,96,0.00,,,0.00,Weather View 32 v70,2013-09-08 07:18:00,
2013-09-08 00:23:00,55.0,54.2,28.59,NE,45,6.0,6.0,97,0.00,,,0.00,Weather View 32 v70,2013-09-08 07:23:00,
2013-09-08 00:28:00,55.0,54.2,28.59,ENE,67,5.0,6.0,97,0.00,,,0.00,Weather View 32 v70,2013-09-08 07:28:00,
2013-09-08 00:33:00,55.0,54.2,28.59,NE,45,5.0,6.0,97,0.00,,,0.00,Weather View 32 v70,2013-09-08 07:33:00,
2013-09-08 00:38:00,55.0,53.9,28.60,NE,45,4.0,6.0,96,0.00,,,0.00,Weather View 32 v70,2013-09-08 07:38:00,
2013-09-08 00:43:00,55.0,53.9,28.60,East,90,2.0,6.0,96,0.00,,,0.00,Weather View 32 v70,2013-09-08 07:43:00,
2013-09-08 00:48:00,54.0,53.2,28.60,East,90,1.0,6.0,97,0.00,,,0.00,Weather View 32 v70,2013-09-08 07:48:00,
2013-09-08 00:53:00,54.0,53.2,28.60,East,90,0.0,6.0,97,0.00,,,0.00,Weather View 32 v70,2013-09-08 07:53:00,
2013-09-08 00:58:00,54.0,53.2,28.60,East,90,0.0,6.0,97,0.00,,,0.00,Weather View 32 v70,2013-09-08 07:58:00,
2013-09-08 01:03:00,54.0,53.2,28.60,NE,45,3.0,6.0,97,0.00,,,0.00,Weather View 32 v70,2013-09-08 08:03:00,
2013-09-08 01:08:00,54.0,53.2,28.61,NE,45,5.0,6.0,97,0.00,,,0.00,Weather View 32 v70,2013-09-08 08:08:00,
2013-09-08 01:13:00,54.0,53.2,28.61,NE,45,3.0,6.0,97,0.00,,,0.00,Weather View 32 v70,2013-09-08 08:13:00,
2013-09-08 01:18:00,54.0,53.2,28.60,ENE,67,3.0,6.0,97,0.00,,,0.00,Weather View 32 v70,2013-09-08 08:18:00,
2013-09-08 01:23:00,54.0,53.2,28.60,ENE,67,0.0,6.0,97,0.00,,,0.00,Weather View 32 v70,2013-09-08 08:23:00,
2013-09-08 01:28:00,53.0,52.2,28.60,ENE,67,5.0,6.0,97,0.00,,,0.00,Weather View 32 v70,2013-09-08 08:28:00,
2013-09-08 01:33:00,53.0,52.2,28.60,East,90,2.0,6.0,97,0.00,,,0.00,Weather View 32 v70,2013-09-08 08:33:00,
2013-09-08 01:38:00,53.0,52.2,28.61,ENE,67,3.0,6.0,97,0.00,,,0.00,Weather View 32 v70,2013-09-08 08:38:00,
2013-09-08 01:43:00,53.0,52.2,28.61,East,90,1.0,6.0,97,0.00,,,0.00,Weather View 32 v70,2013-09-08 08:43:00,
2013-09-08 01:48:00,53.0,52.2,28.60,East,90,2.0,6.0,97,0.00,,,0.00,Weather View 32 v70,2013-09-08 08:48:00,
2013-09-08 01:53:00,53.0,52.2,28.60,East,90,0.0,6.0,97,0.00,,,0.00,Weather View 32 v70,2013-09-08 08:53:00,
2013-09-08 01:58:00,53.0,52.2,28.60,NE,45,2.0,6.0,97,0.00,,,0.00,Weather View 32 v70,2013-09-08 08:58:00,
2013-09-08 02:03:00,53.0,52.2,28.60,NE,45,5.0,7.0,97,0.00,,,0.00,Weather View 32 v70,2013-09-08 09:03:00,
2013-09-08 02:08:00,53.0,52.2,28.60,NE,45,0.0,7.0,97,0.00,,,0.00,Weather View 32 v70,2013-09-08 09:08:00,
2013-09-08 02:13:00,53.0,52.2,28.60,NE,45,1.0,7.0,97,0.00,,,0.00,Weather View 32 v70,2013-09-08 09:13:00,
2013-09-08 02:18:00,53.0,52.2,28.60,ENE,67,3.0,7.0,97,0.00,,,0.00,Weather View 32 v70,2013-09-08 09:18:00,
2013-09-08 02:23:00,53.0,52.2,28.60,NE,45,4.0,7.0,97,0.00,,,0.00,Weather View 32 v70,2013-09-08 09:23:00,
2013-09-08 02:28:00,52.0,51.2,28.60,NE,45,6.0,8.0,97,0.00,,,0.00,Weather View 32 v70,2013-09-08 09:28:00,
2013-09-08 02:33:00,52.0,51.2,28.60,NE,45,6.0,8.0,97,0.00,,,0.00,Weather View 32 v70,2013-09-08 09:33:00,
2013-09-08 02:38:00,52.0,51.2,28.60,NE,45,4.0,8.0,97,0.00,,,0.00,Weather View 32 v70,2013-09-08 09:38:00,
2013-09-08 02:43:00,52.0,51.2,28.60,NE,45,3.0,8.0,97,0.00,,,0.00,Weather View 32 v70,2013-09-08 09:43:00,
2013-09-08 02:48:00,52.0,51.2,28.60,East,90,1.0,8.0,97,0.00,,,0.00,Weather View 32 v70,2013-09-08 09:48:00,
2013-09-08 02:53:00,51.0,50.2,28.60,NE,45,2.0,8.0,97,0.00,,,0.00,Weather View 32 v70,2013-09-08 09:53:00,
2013-09-08 02:58:00,51.0,50.2,28.60,NE,45,1.0,8.0,97,0.00,,,0.00,Weather View 32 v70,2013-09-08 09:58:00,
2013-09-08 03:03:00,51.0,50.2,28.60,NE,45,3.0,8.0,97,0.00,,,0.00,Weather View 32 v70,2013-09-08 10:03:00,
2013-09-08 03:08:00,52.0,51.2,28.60,NE,45,1.0,8.0,97,0.00,,,0.00,Weather View 32 v70,2013-09-08 10:08:00,
2013-09-08 03:13:00,51.0,50.2,28.60,East,90,2.0,8.0,97,0.00,,,0.00,Weather View 32 v70,2013-09-08 10:13:00,
2013-09-08 03:18:00,51.0,50.2,28.60,East,90,1.0,8.0,97,0.00,,,0.00,Weather View 32 v70,2013-09-08 10:18:00,
2013-09-08 03:23:00,51.0,50.2,28.60,East,90,1.0,8.0,97,0.00,,,0.00,Weather View 32 v70,2013-09-08 10:23:00,
2013-09-08 03:28:00,51.0,50.2,28.60,East,90,0.0,6.0,97,0.00,,,0.00,Weather View 32 v70,2013-09-08 10:28:00,
2013-09-08 03:33:00,51.0,50.2,28.60,ENE,67,4.0,6.0,97,0.00,,,0.00,Weather View 32 v70,2013-09-08 10:33:00,
2013-09-08 03:38:00,51.0,50.2,28.61,NE,45,4.0,6.0,97,0.00,,,0.00,Weather View 32 v70,2013-09-08 10:38:00,
2013-09-08 03:43:00,51.0,50.2,28.61,NE,45,3.0,6.0,97,0.00,,,0.00,Weather View 32 v70,2013-09-08 10:43:00,
2013-09-08 03:48:00,51.0,50.2,28.60,NE,45,2.0,6.0,97,0.00,,,0.00,Weather View 32 v70,2013-09-08 10:48:00,
2013-09-08 03:53:00,51.0,50.2,28.60,NE,45,4.0,6.0,97,0.00,,,0.00,Weather View 32 v70,2013-09-08 10:53:00,
2013-09-08 03:58:00,51.0,50.2,28.60,NE,45,4.0,6.0,97,0.00,,,0.00,Weather View 32 v70,2013-09-08 10:58:00,
2013-09-08 04:03:00,51.0,50.2,28.60,NE,45,4.0,6.0,97,0.00,,,0.00,Weather View 32 v70,2013-09-08 11:03:00,
2013-09-08 04:08:00,50.0,49.2,28.61,ENE,67,3.0,6.0,97,0.00,,,0.00,Weather View 32 v70,2013-09-08 11:08:00,
2013-09-08 04:13:00,50.0,49.2,28.61,NE,45,1.0,6.0,97,0.00,,,0.00,Weather View 32 v70,2013-09-08 11:13:00,
2013-09-08 04:18:00,50.0,49.2,28.61,NE,45,4.0,7.0,97,0.00,,,0.00,Weather View 32 v70,2013-09-08 11:18:00,
2013-09-08 04:23:00,50.0,49.2,28.61,NE,45,0.0,7.0,97,0.00,,,0.00,Weather View 32 v70,2013-09-08 11:23:00,
2013-09-08 04:28:00,50.0,49.2,28.61,East,90,0.0,7.0,97,0.00,,,0.00,Weather View 32 v70,2013-09-08 11:28:00,
2013-09-08 04:33:00,50.0,49.2,28.61,ENE,67,2.0,7.0,97,0.00,,,0.00,Weather View 32 v70,2013-09-08 11:33:00,
2013-09-08 04:39:00,50.0,49.2,28.61,ENE,67,3.0,7.0,97,0.00,,,0.00,Weather View 32 v70,2013-09-08 11:39:00,
2013-09-08 04:44:00,50.0,49.2,28.61,ENE,67,2.0,7.0,97,0.00,,,0.00,Weather View 32 v70,2013-09-08 11:44:00,
2013-09-08 04:49:00,50.0,49.2,28.61,NE,45,2.0,7.0,97,0.00,,,0.00,Weather View 32 v70,2013-09-08 11:49:00,
2013-09-08 04:54:00,50.0,49.2,28.61,East,90,0.0,7.0,97,0.00,,,0.00,Weather View 32 v70,2013-09-08 11:54:00,
2013-09-08 04:59:00,50.0,49.2,28.61,East,90,0.0,7.0,97,0.00,,,0.00,Weather View 32 v70,2013-09-08 11:59:00,
2013-09-08 05:04:00,50.0,49.2,28.61,East,90,0.0,7.0,97,0.00,,,0.00,Weather View 32 v70,2013-09-08 12:04:00,
2013-09-08 05:09:00,50.0,49.2,28.61,SE,135,0.0,7.0,97,0.00,,,0.00,Weather View 32 v70,2013-09-08 12:09:00,
2013-09-08 05:14:00,50.0,49.2,28.61,SE,135,0.0,7.0,97,0.00,,,0.00,Weather View 32 v70,2013-09-08 12:14:00,
2013-09-08 05:19:00,50.0,49.2,28.61,SE,135,0.0,6.0,97,0.00,,,0.00,Weather View 32 v70,2013-09-08 12:19:00,
2013-09-08 05:24:00,50.0,49.2,28.61,SE,135,0.0,4.0,97,0.00,,,0.00,Weather View 32 v70,2013-09-08 12:24:00,
2013-09-08 05:29:00,50.0,49.2,28.60,SE,135,0.0,4.0,97,0.00,,,0.00,Weather View 32 v70,2013-09-08 12:29:00,
2013-09-08 05:34:00,50.0,49.2,28.60,East,90,2.0,4.0,97,0.00,,,0.00,Weather View 32 v70,2013-09-08 12:34:00,
2013-09-08 05:39:00,50.0,49.2,28.61,East,90,2.0,4.0,97,0.00,,,0.00,Weather View 32 v70,2013-09-08 12:39:00,
2013-09-08 05:44:00,50.0,49.2,28.61,East,90,1.0,3.0,97,0.00,,,0.00,Weather View 32 v70,2013-09-08 12:44:00,
2013-09-08 05:49:00,50.0,49.2,28.61,ENE,67,3.0,4.0,97,0.00,,,0.00,Weather View 32 v70,2013-09-08 12:49:00,
2013-09-08 05:54:00,50.0,49.2,28.61,NE,45,2.0,5.0,97,0.00,,,0.00,Weather View 32 v70,2013-09-08 12:54:00,
2013-09-08 05:59:00,50.0,49.2,28.61,NE,45,1.0,5.0,97,0.00,,,0.00,Weather View 32 v70,2013-09-08 12:59:00,
2013-09-08 06:04:00,50.0,49.2,28.61,NE,45,0.0,5.0,97,0.00,,,0.00,Weather View 32 v70,2013-09-08 13:04:00,
2013-09-08 06:09:00,49.0,48.2,28.61,NE,45,3.0,5.0,97,0.00,,,0.00,Weather View 32 v70,2013-09-08 13:09:00,
2013-09-08 06:14:00,49.0,48.2,28.61,NE,45,4.0,5.0,97,0.00,,,0.00,Weather View 32 v70,2013-09-08 13:14:00,
2013-09-08 06:19:00,49.0,48.2,28.61,ENE,67,1.0,6.0,97,0.00,,,0.00,Weather View 32 v70,2013-09-08 13:19:00,
2013-09-08 06:24:00,49.0,48.2,28.61,NE,45,5.0,6.0,97,0.00,,,0.00,Weather View 32 v70,2013-09-08 13:24:00,
2013-09-08 06:29:00,49.0,48.2,28.61,NE,45,4.0,6.0,97,0.00,,,0.00,Weather View 32 v70,2013-09-08 13:29:00,
2013-09-08 06:34:00,49.0,48.2,28.61,NE,45,2.0,6.0,97,0.00,,,0.00,Weather View 32 v70,2013-09-08 13:34:00,
2013-09-08 06:39:00,49.0,48.2,28.62,NE,45,4.0,6.0,97,0.00,,,0.00,Weather View 32 v70,2013-09-08 13:39:00,
2013-09-08 06:44:00,49.0,48.2,28.62,NE,45,0.0,6.0,97,0.00,,,0.00,Weather View 32 v70,2013-09-08 13:44:00,
2013-09-08 06:49:00,49.0,48.2,28.62,NE,45,0.0,6.0,97,0.00,,,0.00,Weather View 32 v70,2013-09-08 13:49:00,
2013-09-08 06:54:00,50.0,49.2,28.62,NE,45,0.0,6.0,97,0.00,,,0.00,Weather View 32 v70,2013-09-08 13:54:00,
2013-09-08 06:59:00,50.0,49.2,28.62,NE,45,1.0,6.0,97,0.00,,,0.00,Weather View 32 v70,2013-09-08 13:59:00,
2013-09-08 07:04:00,50.0,49.2,28.62,NE,45,2.0,6.0,97,0.00,,,0.00,Weather View 32 v70,2013-09-08 14:04:00,
2013-09-08 07:10:00,50.0,49.2,28.62,NE,45,0.0,6.0,97,0.00,,,0.00,Weather View 32 v70,2013-09-08 14:10:00,
2013-09-08 07:15:00,51.0,50.2,28.62,NE,45,0.0,6.0,97,0.00,,,0.00,Weather View 32 v70,2013-09-08 14:15:00,
2013-09-08 07:20:00,51.0,50.2,28.62,NE,45,0.0,6.0,97,0.00,,,0.00,Weather View 32 v70,2013-09-08 14:20:00,
2013-09-08 07:25:00,52.0,51.2,28.62,NNW,337,0.0,6.0,97,0.00,,,0.00,Weather View 32 v70,2013-09-08 14:25:00,
2013-09-08 07:30:00,52.0,51.2,28.62,NNW,337,0.0,6.0,97,0.00,,,0.00,Weather View 32 v70,2013-09-08 14:30:00,
2013-09-08 07:35:00,53.0,51.3,28.62,SE,135,2.0,6.0,94,0.00,,,0.00,Weather View 32 v70,2013-09-08 14:35:00,
2013-09-08 07:40:00,54.0,52.0,28.62,SE,135,0.0,6.0,93,0.00,,,0.00,Weather View 32 v70,2013-09-08 14:40:00,
2013-09-08 07:45:00,55.0,53.0,28.62,SE,135,0.0,3.0,93,0.00,,,0.00,Weather View 32 v70,2013-09-08 14:45:00,
2013-09-08 07:50:00,56.0,53.7,28.62,South,180,0.0,3.0,92,0.00,,,0.00,Weather View 32 v70,2013-09-08 14:50:00,
2013-09-08 07:55:00,57.0,55.9,28.62,South,180,0.0,3.0,96,0.00,,,0.00,Weather View 32 v70,2013-09-08 14:55:00,
2013-09-08 08:00:00,57.0,54.7,28.61,South,180,0.0,3.0,92,0.00,,,0.00,Weather View 32 v70,2013-09-08 15:00:00,
2013-09-08 08:05:00,58.0,54.5,28.61,South,180,0.0,3.0,88,0.00,,,0.00,Weather View 32 v70,2013-09-08 15:05:00,
2013-09-08 08:10:00,58.0,54.1,28.62,South,180,0.0,3.0,87,0.00,,,0.00,Weather View 32 v70,2013-09-08 15:10:00,
2013-09-08 08:15:00,58.0,55.1,28.62,SW,225,2.0,4.0,90,0.00,,,0.00,Weather View 32 v70,2013-09-08 15:15:00,
2013-09-08 08:20:00,58.0,55.7,28.62,SW,225,0.0,4.0,92,0.00,,,0.00,Weather View 32 v70,2013-09-08 15:20:00,
2013-09-08 08:25:00,59.0,55.8,28.62,South,180,0.0,4.0,89,0.00,,,0.00,Weather View 32 v70,2013-09-08 15:25:00,
2013-09-08 08:30:00,59.0,54.5,28.62,SE,135,1.0,4.0,85,0.00,,,0.00,Weather View 32 v70,2013-09-08 15:30:00,
2013-09-08 08:35:00,60.0,55.1,28.62,South,180,0.0,4.0,84,0.00,,,0.00,Weather View 32 v70,2013-09-08 15:35:00,
2013-09-08 08:40:00,60.0,54.8,28.61,ESE,112,0.0,5.0,83,0.00,,,0.00,Weather View 32 v70,2013-09-08 15:40:00,
2013-09-08 08:45:00,61.0,56.8,28.61,East,90,0.0,5.0,86,0.00,,,0.00,Weather View 32 v70,2013-09-08 15:45:00,
2013-09-08 08:50:00,62.0,57.1,28.62,East,90,0.0,5.0,84,0.00,,,0.00,Weather View 32 v70,2013-09-08 15:50:00,
2013-09-08 08:55:00,63.0,55.7,28.62,SE,135,0.0,5.0,77,0.00,,,0.00,Weather View 32 v70,2013-09-08 15:55:00,
2013-09-08 09:00:00,64.0,57.7,28.61,East,90,0.0,5.0,80,0.00,,,0.00,Weather View 32 v70,2013-09-08 16:00:00,
2013-09-08 09:05:00,64.0,57.3,28.61,South,180,0.0,5.0,79,0.00,,,0.00,Weather View 32 v70,2013-09-08 16:05:00,
2013-09-08 09:10:00,64.0,55.5,28.61,SW,225,3.0,5.0,74,0.00,,,0.00,Weather View 32 v70,2013-09-08 16:10:00,
2013-09-08 09:15:00,64.0,55.5,28.61,WSW,247,0.0,5.0,74,0.00,,,0.00,Weather View 32 v70,2013-09-08 16:15:00,
2013-09-08 09:20:00,64.0,55.9,28.62,NW,315,0.0,6.0,75,0.00,,,0.00,Weather View 32 v70,2013-09-08 16:20:00,
2013-09-08 09:25:00,64.0,55.9,28.62,SW,225,2.0,6.0,75,0.00,,,0.00,Weather View 32 v70,2013-09-08 16:25:00,
2013-09-08 09:30:00,64.0,55.9,28.62,ESE,112,1.0,6.0,75,0.00,,,0.00,Weather View 32 v70,2013-09-08 16:30:00,
2013-09-08 09:35:00,65.0,56.1,28.62,East,90,2.0,6.0,73,0.00,,,0.00,Weather View 32 v70,2013-09-08 16:35:00,
2013-09-08 09:40:00,65.0,55.7,28.62,South,180,4.0,6.0,72,0.00,,,0.00,Weather View 32 v70,2013-09-08 16:40:00,
2013-09-08 09:45:00,66.0,56.7,28.62,North,360,0.0,6.0,72,0.00,,,0.00,Weather View 32 v70,2013-09-08 16:45:00,
2013-09-08 09:50:00,66.0,55.9,28.62,South,180,1.0,6.0,70,0.00,,,0.00,Weather View 32 v70,2013-09-08 16:50:00,
2013-09-08 09:55:00,67.0,55.6,28.62,South,180,0.0,6.0,67,0.00,,,0.00,Weather View 32 v70,2013-09-08 16:55:00,
2013-09-08 10:00:00,68.0,55.8,28.60,SE,135,0.0,6.0,65,0.00,,,0.00,Weather View 32 v70,2013-09-08 17:00:00,
2013-09-08 10:05:00,68.0,56.2,28.60,SE,135,3.0,6.0,66,0.00,,,0.00,Weather View 32 v70,2013-09-08 17:05:00,
2013-09-08 10:10:00,68.0,56.6,28.61,West,270,4.0,6.0,67,0.00,,,0.00,Weather View 32 v70,2013-09-08 17:10:00,
2013-09-08 10:15:00,67.0,56.9,28.61,WNW,292,4.0,7.0,70,0.00,,,0.00,Weather View 32 v70,2013-09-08 17:15:00,
2013-09-08 10:20:00,67.0,56.9,28.61,SW,225,3.0,8.0,70,0.00,,,0.00,Weather View 32 v70,2013-09-08 17:20:00,
2013-09-08 10:25:00,66.0,56.3,28.61,West,270,5.0,9.0,71,0.00,,,0.00,Weather View 32 v70,2013-09-08 17:25:00,
2013-09-08 10:30:00,67.0,56.9,28.60,SW,225,7.0,9.0,70,0.00,,,0.00,Weather View 32 v70,2013-09-08 17:30:00,
2013-09-08 10:35:00,67.0,56.5,28.60,SW,225,6.0,9.0,69,0.00,,,0.00,Weather View 32 v70,2013-09-08 17:35:00,
2013-09-08 10:40:00,67.0,56.5,28.60,West,270,4.0,9.0,69,0.00,,,0.00,Weather View 32 v70,2013-09-08 17:40:00,
2013-09-08 10:45:00,68.0,57.4,28.60,SW,225,2.0,9.0,69,0.00,,,0.00,Weather View 32 v70,2013-09-08 17:45:00,
2013-09-08 10:50:00,68.0,57.4,28.60,West,270,4.0,9.0,69,0.00,,,0.00,Weather View 32 v70,2013-09-08 17:50:00,
2013-09-08 10:55:00,68.0,57.4,28.60,SW,225,7.0,9.0,69,0.00,,,0.00,Weather View 32 v70,2013-09-08 17:55:00,
2013-09-08 11:00:00,69.0,57.6,28.60,WSW,247,3.0,9.0,67,0.00,,,0.00,Weather View 32 v70,2013-09-08 18:00:00,
2013-09-08 11:05:00,69.0,56.7,28.60,SW,225,5.0,9.0,65,0.00,,,0.00,Weather View 32 v70,2013-09-08 18:05:00,
2013-09-08 11:10:00,70.0,56.3,28.59,West,270,3.0,9.0,62,0.00,,,0.00,Weather View 32 v70,2013-09-08 18:10:00,
2013-09-08 11:15:00,70.0,55.9,28.59,SW,225,7.0,9.0,61,0.00,,,0.00,Weather View 32 v70,2013-09-08 18:15:00,
2013-09-08 11:20:00,70.0,55.4,28.59,West,270,5.0,9.0,60,0.00,,,0.00,Weather View 32 v70,2013-09-08 18:20:00,
2013-09-08 11:25:00,70.0,55.0,28.59,West,270,1.0,9.0,59,0.00,,,0.00,Weather View 32 v70,2013-09-08 18:25:00,
2013-09-08 11:30:00,71.0,55.0,28.59,West,270,6.0,9.0,57,0.00,,,0.00,Weather View 32 v70,2013-09-08 18:30:00,
2013-09-08 11:35:00,71.0,54.5,28.59,NW,315,1.0,9.0,56,0.00,,,0.00,Weather View 32 v70,2013-09-08 18:35:00,
2013-09-08 11:40:00,72.0,54.4,28.58,SW,225,5.0,9.0,54,0.00,,,0.00,Weather View 32 v70,2013-09-08 18:40:00,
2013-09-08 11:45:00,71.0,53.5,28.58,WSW,247,4.0,9.0,54,0.00,,,0.00,Weather View 32 v70,2013-09-08 18:45:00,
2013-09-08 11:50:00,71.0,53.5,28.58,SW,225,4.0,9.0,54,0.00,,,0.00,Weather View 32 v70,2013-09-08 18:50:00,
2013-09-08 11:55:00,72.0,55.4,28.58,West,270,5.0,9.0,56,0.00,,,0.00,Weather View 32 v70,2013-09-08 18:55:00,
2013-09-08 12:00:00,72.0,54.4,28.58,SW,225,6.0,9.0,54,0.00,,,0.00,Weather View 32 v70,2013-09-08 19:00:00,
2013-09-08 12:05:00,73.0,54.3,28.58,SSW,202,1.0,9.0,52,0.00,,,0.00,Weather View 32 v70,2013-09-08 19:05:00,
2013-09-08 12:10:00,73.0,54.3,28.57,SW,225,7.0,9.0,52,0.00,,,0.00,Weather View 32 v70,2013-09-08 19:10:00,
2013-09-08 12:15:00,72.0,53.9,28.57,SW,225,3.0,9.0,53,0.00,,,0.00,Weather View 32 v70,2013-09-08 19:15:00,
2013-09-08 12:20:00,72.0,53.9,28.57,SW,225,7.0,10.0,53,0.00,,,0.00,Weather View 32 v70,2013-09-08 19:20:00,
2013-09-08 12:25:00,71.0,54.0,28.57,SW,225,6.0,12.0,55,0.00,,,0.00,Weather View 32 v70,2013-09-08 19:25:00,
2013-09-08 12:30:00,72.0,54.9,28.56,SW,225,8.0,12.0,55,0.00,,,0.00,Weather View 32 v70,2013-09-08 19:30:00,
2013-09-08 12:35:00,72.0,54.9,28.56,WNW,292,6.0,12.0,55,0.00,,,0.00,Weather View 32 v70,2013-09-08 19:35:00,
2013-09-08 12:40:00,72.0,54.9,28.56,SW,225,6.0,12.0,55,0.00,,,0.00,Weather View 32 v70,2013-09-08 19:40:00,
2013-09-08 12:45:00,72.0,55.4,28.56,WSW,247,6.0,12.0,56,0.00,,,0.00,Weather View 32 v70,2013-09-08 19:45:00,
2013-09-08 12:50:00,73.0,56.3,28.56,SW,225,8.0,12.0,56,0.00,,,0.00,Weather View 32 v70,2013-09-08 19:50:00,
2013-09-08 12:55:00,73.0,56.3,28.56,West,270,5.0,12.0,56,0.00,,,0.00,Weather View 32 v70,2013-09-08 19:55:00,
2013-09-08 13:00:00,73.0,56.3,28.56,SW,225,6.0,12.0,56,0.00,,,0.00,Weather View 32 v70,2013-09-08 20:00:00,
2013-09-08 13:05:00,73.0,56.3,28.56,WSW,247,8.0,13.0,56,0.00,,,0.00,Weather View 32 v70,2013-09-08 20:05:00,
2013-09-08 13:10:00,73.0,56.3,28.56,SW,225,11.0,13.0,56,0.00,,,0.00,Weather View 32 v70,2013-09-08 20:10:00,
2013-09-08 13:15:00,73.0,55.8,28.56,SSW,202,6.0,13.0,55,0.00,,,0.00,Weather View 32 v70,2013-09-08 20:15:00,
2013-09-08 13:20:00,73.0,55.3,28.56,SW,225,9.0,13.0,54,0.00,,,0.00,Weather View 32 v70,2013-09-08 20:20:00,
2013-09-08 13:25:00,74.0,56.2,28.56,SW,225,8.0,13.0,54,0.00,,,0.00,Weather View 32 v70,2013-09-08 20:25:00,
2013-09-08 13:30:00,74.0,55.2,28.55,SW,225,8.0,13.0,52,0.00,,,0.00,Weather View 32 v70,2013-09-08 20:30:00,
2013-09-08 13:35:00,74.0,55.7,28.55,SW,225,6.0,13.0,53,0.00,,,0.00,Weather View 32 v70,2013-09-08 20:35:00,
2013-09-08 13:40:00,74.0,55.7,28.54,West,270,6.0,13.0,53,0.00,,,0.00,Weather View 32 v70,2013-09-08 20:40:00,
2013-09-08 13:45:00,74.0,55.2,28.54,SW,225,9.0,13.0,52,0.00,,,0.00,Weather View 32 v70,2013-09-08 20:45:00,
2013-09-08 13:50:00,74.0,55.2,28.54,SW,225,7.0,13.0,52,0.00,,,0.00,Weather View 32 v70,2013-09-08 20:50:00,
2013-09-08 13:55:00,75.0,55.6,28.54,SW,225,6.0,13.0,51,0.00,,,0.00,Weather View 32 v70,2013-09-08 20:55:00,
2013-09-08 14:00:00,75.0,55.0,28.54,SW,225,8.0,13.0,50,0.00,,,0.00,Weather View 32 v70,2013-09-08 21:00:00,
2013-09-08 14:05:00,76.0,56.5,28.54,SW,225,9.0,13.0,51,0.00,,,0.00,Weather View 32 v70,2013-09-08 21:05:00,
2013-09-08 14:10:00,75.0,54.5,28.53,SW,225,9.0,13.0,49,0.00,,,0.00,Weather View 32 v70,2013-09-08 21:10:00,
2013-09-08 14:15:00,75.0,54.5,28.53,SW,225,9.0,13.0,49,0.00,,,0.00,Weather View 32 v70,2013-09-08 21:15:00,
2013-09-08 14:20:00,76.0,55.4,28.53,SW,225,6.0,13.0,49,0.00,,,0.00,Weather View 32 v70,2013-09-08 21:20:00,
2013-09-08 14:25:00,76.0,54.8,28.53,WNW,292,2.0,13.0,48,0.00,,,0.00,Weather View 32 v70,2013-09-08 21:25:00,
2013-09-08 14:30:00,77.0,54.6,28.52,SW,225,10.0,13.0,46,0.00,,,0.00,Weather View 32 v70,2013-09-08 21:30:00,
2013-09-08 14:35:00,77.0,54.6,28.52,SW,225,10.0,13.0,46,0.00,,,0.00,Weather View 32 v70,2013-09-08 21:35:00,
2013-09-08 14:40:00,77.0,54.6,28.52,SW,225,9.0,13.0,46,0.00,,,0.00,Weather View 32 v70,2013-09-08 21:40:00,
2013-09-08 14:45:00,77.0,55.2,28.52,SW,225,9.0,12.0,47,0.00,,,0.00,Weather View 32 v70,2013-09-08 21:45:00,
2013-09-08 14:50:00,77.0,54.6,28.51,SW,225,4.0,14.0,46,0.00,,,0.00,Weather View 32 v70,2013-09-08 21:50:00,
2013-09-08 14:55:00,78.0,55.5,28.51,SW,225,6.0,14.0,46,0.00,,,0.00,Weather View 32 v70,2013-09-08 21:55:00,
2013-09-08 15:00:00,78.0,54.9,28.50,SW,225,10.0,14.0,45,0.00,,,0.00,Weather View 32 v70,2013-09-08 22:00:00,
2013-09-08 15:05:00,78.0,54.2,28.50,SSW,202,6.0,14.0,44,0.00,,,0.00,Weather View 32 v70,2013-09-08 22:05:00,
2013-09-08 15:10:00,78.0,53.6,28.50,SW,225,11.0,14.0,43,0.00,,,0.00,Weather View 32 v70,2013-09-08 22:10:00,
2013-09-08 15:15:00,78.0,54.2,28.50,SSW,202,5.0,14.0,44,0.00,,,0.00,Weather View 32 v70,2013-09-08 22:15:00,
2013-09-08 15:20:00,79.0,53.9,28.50,SW,225,13.0,14.0,42,0.00,,,0.00,Weather View 32 v70,2013-09-08 22:20:00,
2013-09-08 15:25:00,79.0,53.9,28.50,SW,225,9.0,14.0,42,0.00,,,0.00,Weather View 32 v70,2013-09-08 22:25:00,
2013-09-08 15:30:00,78.0,53.6,28.49,SW,225,11.0,15.0,43,0.00,,,0.00,Weather View 32 v70,2013-09-08 22:30:00,
2013-09-08 15:35:00,79.0,54.5,28.49,SW,225,7.0,15.0,43,0.00,,,0.00,Weather View 32 v70,2013-09-08 22:35:00,
2013-09-08 15:40:00,79.0,53.9,28.48,South,180,6.0,15.0,42,0.00,,,0.00,Weather View 32 v70,2013-09-08 22:40:00,
2013-09-08 15:45:00,79.0,53.9,28.48,SW,225,10.0,15.0,42,0.00,,,0.00,Weather View 32 v70,2013-09-08 22:45:00,
2013-09-08 15:50:00,79.0,53.9,28.48,SW,225,7.0,15.0,42,0.00,,,0.00,Weather View 32 v70,2013-09-08 22:50:00,
2013-09-08 15:55:00,79.0,53.2,28.48,SW,225,4.0,15.0,41,0.00,,,0.00,Weather View 32 v70,2013-09-08 22:55:00,
2013-09-08 16:00:00,79.0,53.9,28.48,SW,225,9.0,15.0,42,0.00,,,0.00,Weather View 32 v70,2013-09-08 23:00:00,
2013-09-08 16:05:00,79.0,53.2,28.48,SW,225,7.0,15.0,41,0.00,,,0.00,Weather View 32 v70,2013-09-08 23:05:00,
2013-09-08 16:10:00,79.0,53.2,28.47,SW,225,6.0,15.0,41,0.00,,,0.00,Weather View 32 v70,2013-09-08 23:10:00,
2013-09-08 16:15:00,80.0,53.4,28.47,SW,225,7.0,15.0,40,0.00,,,0.00,Weather View 32 v70,2013-09-08 23:15:00,
2013-09-08 16:20:00,80.0,53.4,28.47,SW,225,9.0,15.0,40,0.00,,,0.00,Weather View 32 v70,2013-09-08 23:20:00,
2013-09-08 16:25:00,79.0,52.5,28.47,SW,225,3.0,15.0,40,0.00,,,0.00,Weather View 32 v70,2013-09-08 23:25:00,
2013-09-08 16:30:00,80.0,52.7,28.46,WSW,247,1.0,15.0,39,0.00,,,0.00,Weather View 32 v70,2013-09-08 23:30:00,
2013-09-08 16:35:00,80.0,52.7,28.46,SW,225,2.0,14.0,39,0.00,,,0.00,Weather View 32 v70,2013-09-08 23:35:00,
2013-09-08 16:40:00,80.0,52.7,28.46,SW,225,8.0,13.0,39,0.00,,,0.00,Weather View 32 v70,2013-09-08 23:40:00,
2013-09-08 16:45:00,80.0,52.7,28.46,SW,225,8.0,13.0,39,0.00,,,0.00,Weather View 32 v70,2013-09-08 23:45:00,
2013-09-08 16:50:00,80.0,52.7,28.46,SW,225,8.0,13.0,39,0.00,,,0.00,Weather View 32 v70,2013-09-08 23:50:00,
2013-09-08 16:55:00,80.0,52.0,28.46,WSW,247,7.0,12.0,38,0.00,,,0.00,Weather View 32 v70,2013-09-08 23:55:00,
2013-09-08 17:00:00,80.0,52.0,28.46,SW,225,9.0,12.0,38,0.00,,,0.00,Weather View 32 v70,2013-09-09 00:00:00,
2013-09-08 17:05:00,80.0,53.4,28.46,SW,225,9.0,12.0,40,0.00,,,0.00,Weather View 32 v70,2013-09-09 00:05:00,
2013-09-08 17:10:00,80.0,53.4,28.46,SW,225,9.0,12.0,40,0.00,,,0.00,Weather View 32 v70,2013-09-09 00:10:00,
2013-09-08 17:15:00,80.0,53.4,28.46,SW,225,6.0,12.0,40,0.00,,,0.00,Weather View 32 v70,2013-09-09 00:15:00,
2013-09-08 17:20:00,80.0,52.7,28.46,SW,225,2.0,12.0,39,0.00,,,0.00,Weather View 32 v70,2013-09-09 00:20:00,
2013-09-08 17:25:00,80.0,52.7,28.46,SW,225,7.0,12.0,39,0.00,,,0.00,Weather View 32 v70,2013-09-09 00:25:00,
2013-09-08 17:30:00,80.0,52.0,28.45,SW,225,9.0,12.0,38,0.00,,,0.00,Weather View 32 v70,2013-09-09 00:30:00,
2013-09-08 17:35:00,80.0,52.7,28.45,SW,225,8.0,12.0,39,0.00,,,0.00,Weather View 32 v70,2013-09-09 00:35:00,
2013-09-08 17:40:00,80.0,52.0,28.45,WSW,247,5.0,12.0,38,0.00,,,0.00,Weather View 32 v70,2013-09-09 00:40:00,
2013-09-08 17:45:00,80.0,52.7,28.45,SW,225,6.0,12.0,39,0.00,,,0.00,Weather View 32 v70,2013-09-09 00:45:00,
2013-09-08 17:50:00,80.0,52.0,28.45,SSW,202,1.0,12.0,38,0.00,,,0.00,Weather View 32 v70,2013-09-09 00:50:00,
2013-09-08 17:55:00,81.0,52.9,28.45,South,180,6.0,12.0,38,0.00,,,0.00,Weather View 32 v70,2013-09-09 00:55:00,
2013-09-08 18:00:00,80.0,52.0,28.44,South,180,4.0,12.0,38,0.00,,,0.00,Weather View 32 v70,2013-09-09 01:00:00,
2013-09-08 18:05:00,80.0,51.3,28.44,South,180,2.0,12.0,37,0.00,,,0.00,Weather View 32 v70,2013-09-09 01:05:00,
2013-09-08 18:10:00,80.0,51.3,28.44,SW,225,10.0,12.0,37,0.00,,,0.00,Weather View 32 v70,2013-09-09 01:10:00,
2013-09-08 18:15:00,80.0,51.3,28.44,South,180,3.0,12.0,37,0.00,,,0.00,Weather View 32 v70,2013-09-09 01:15:00,
2013-09-08 18:20:00,80.0,51.3,28.44,SW,225,7.0,12.0,37,0.00,,,0.00,Weather View 32 v70,2013-09-09 01:20:00,
2013-09-08 18:25:00,80.0,52.0,28.44,SW,225,0.0,12.0,38,0.00,,,0.00,Weather View 32 v70,2013-09-09 01:25:00,
2013-09-08 18:30:00,80.0,51.3,28.43,South,180,0.0,12.0,37,0.00,,,0.00,Weather View 32 v70,2013-09-09 01:30:00,
2013-09-08 18:35:00,79.0,51.1,28.43,South,180,2.0,11.0,38,0.00,,,0.00,Weather View 32 v70,2013-09-09 01:35:00,
2013-09-08 18:40:00,79.0,51.8,28.43,SW,225,1.0,11.0,39,0.00,,,0.00,Weather View 32 v70,2013-09-09 01:40:00,
2013-09-08 18:45:00,79.0,51.8,28.43,South,180,6.0,11.0,39,0.00,,,0.00,Weather View 32 v70,2013-09-09 01:45:00,
2013-09-08 18:50:00,79.0,51.8,28.43,South,180,5.0,11.0,39,0.00,,,0.00,Weather View 32 v70,2013-09-09 01:50:00,
2013-09-08 18:55:00,78.0,51.6,28.43,South,180,2.0,11.0,40,0.00,,,0.00,Weather View 32 v70,2013-09-09 01:55:00,
2013-09-08 19:00:00,78.0,51.6,28.43,South,180,6.0,11.0,40,0.00,,,0.00,Weather View 32 v70,2013-09-09 02:00:00,
2013-09-08 19:05:00,78.0,53.0,28.43,SE,135,4.0,11.0,42,0.00,,,0.00,Weather View 32 v70,2013-09-09 02:05:00,
2013-09-08 19:10:00,77.0,52.7,28.43,SW,225,2.0,11.0,43,0.00,,,0.00,Weather View 32 v70,2013-09-09 02:10:00,
2013-09-08 19:15:00,76.0,53.7,28.43,South,180,3.0,11.0,46,0.00,,,0.00,Weather View 32 v70,2013-09-09 02:15:00,
2013-09-08 19:20:00,76.0,54.8,28.43,South,180,1.0,11.0,48,0.00,,,0.00,Weather View 32 v70,2013-09-09 02:20:00,
2013-09-08 19:25:00,75.0,54.5,28.43,South,180,6.0,13.0,49,0.00,,,0.00,Weather View 32 v70,2013-09-09 02:25:00,
2013-09-08 19:30:00,75.0,55.6,28.44,East,90,3.0,13.0,51,0.00,,,0.00,Weather View 32 v70,2013-09-09 02:30:00,
2013-09-08 19:35:00,74.0,55.2,28.44,SE,135,4.0,13.0,52,0.00,,,0.00,Weather View 32 v70,2013-09-09 02:35:00,
2013-09-08 19:40:00,74.0,55.7,28.44,SW,225,6.0,13.0,53,0.00,,,0.00,Weather View 32 v70,2013-09-09 02:40:00,
2013-09-08 19:45:00,73.0,55.3,28.44,SSW,202,3.0,13.0,54,0.00,,,0.00,Weather View 32 v70,2013-09-09 02:45:00,
2013-09-08 19:50:00,73.0,55.8,28.45,South,180,5.0,13.0,55,0.00,,,0.00,Weather View 32 v70,2013-09-09 02:50:00,
2013-09-08 19:55:00,72.0,55.4,28.45,SSW,202,2.0,13.0,56,0.00,,,0.00,Weather View 32 v70,2013-09-09 02:55:00,
2013-09-08 20:00:00,72.0,55.9,28.45,South,180,6.0,13.0,57,0.00,,,0.00,Weather View 32 v70,2013-09-09 03:00:00,
2013-09-08 20:05:00,72.0,56.4,28.45,SE,135,2.0,13.0,58,0.00,,,0.00,Weather View 32 v70,2013-09-09 03:05:00,
2013-09-08 20:10:00,72.0,56.8,28.44,South,180,6.0,13.0,59,0.00,,,0.00,Weather View 32 v70,2013-09-09 03:10:00,
2013-09-08 20:15:00,71.0,55.9,28.44,SE,135,2.0,13.0,59,0.00,,,0.00,Weather View 32 v70,2013-09-09 03:15:00,
2013-09-08 20:20:00,71.0,56.4,28.44,South,180,4.0,13.0,60,0.00,,,0.00,Weather View 32 v70,2013-09-09 03:20:00,
2013-09-08 20:25:00,71.0,56.8,28.44,SE,135,6.0,12.0,61,0.00,,,0.00,Weather View 32 v70,2013-09-09 03:25:00,
2013-09-08 20:30:00,70.0,55.9,28.45,South,180,6.0,12.0,61,0.00,,,0.00,Weather View 32 v70,2013-09-09 03:30:00,
2013-09-08 20:36:00,70.0,56.8,28.45,South,180,4.0,12.0,63,0.00,,,0.00,Weather View 32 v70,2013-09-09 03:36:00,
2013-09-08 20:41:00,70.0,56.8,28.45,West,270,2.0,12.0,63,0.00,,,0.00,Weather View 32 v70,2013-09-09 03:41:00,
2013-09-08 20:46:00,70.0,56.8,28.45,SE,135,3.0,12.0,63,0.00,,,0.00,Weather View 32 v70,2013-09-09 03:46:00,
2013-09-08 20:51:00,70.0,56.8,28.45,SE,135,2.0,12.0,63,0.00,,,0.00,Weather View 32 v70,2013-09-09 03:51:00,
2013-09-08 20:56:00,69.0,55.4,28.45,SSW,202,7.0,12.0,62,0.00,,,0.00,Weather View 32 v70,2013-09-09 03:56:00,
2013-09-08 21:01:00,69.0,55.8,28.44,South,180,5.0,12.0,63,0.00,,,0.00,Weather View 32 v70,2013-09-09 04:01:00,
2013-09-08 21:02:00,69.0,55.4,28.44,South,180,5.0,12.0,62,0.00,,,0.00,Weather View 32 v70,2013-09-09 04:02:00,
2013-09-08 21:07:00,69.0,55.8,28.45,SE,135,5.0,12.0,63,0.00,,,0.00,Weather View 32 v70,2013-09-09 04:07:00,
2013-09-08 21:12:00,69.0,55.8,28.45,South,180,4.0,12.0,63,0.00,,,0.00,Weather View 32 v70,2013-09-09 04:12:00,
2013-09-08 21:17:00,69.0,55.8,28.45,South,180,6.0,12.0,63,0.00,,,0.00,Weather View 32 v70,2013-09-09 04:17:00,
2013-09-08 21:22:00,69.0,55.8,28.45,SW,225,4.0,15.0,63,0.00,,,0.00,Weather View 32 v70,2013-09-09 04:22:00,
2013-09-08 21:27:00,69.0,55.8,28.44,SW,225,2.0,15.0,63,0.00,,,0.00,Weather View 32 v70,2013-09-09 04:27:00,
2013-09-08 21:32:00,69.0,55.8,28.44,SW,225,10.0,15.0,63,0.00,,,0.00,Weather View 32 v70,2013-09-09 04:32:00,
2013-09-08 21:37:00,69.0,55.4,28.44,SSW,202,4.0,15.0,62,0.00,,,0.00,Weather View 32 v70,2013-09-09 04:37:00,
2013-09-08 21:42:00,69.0,55.4,28.44,South,180,7.0,15.0,62,0.00,,,0.00,Weather View 32 v70,2013-09-09 04:42:00,
2013-09-08 21:47:00,69.0,55.8,28.44,South,180,6.0,15.0,63,0.00,,,0.00,Weather View 32 v70,2013-09-09 04:47:00,
2013-09-08 21:52:00,68.0,54.9,28.44,SSW,202,7.0,15.0,63,0.00,,,0.00,Weather View 32 v70,2013-09-09 04:52:00,
2013-09-08 21:57:00,68.0,55.3,28.45,SE,135,6.0,15.0,64,0.00,,,0.00,Weather View 32 v70,2013-09-09 04:57:00,
2013-09-08 22:02:00,68.0,55.3,28.45,South,180,7.0,15.0,64,0.00,,,0.00,Weather View 32 v70,2013-09-09 05:02:00,
2013-09-08 22:07:00,68.0,55.3,28.45,SW,225,7.0,15.0,64,0.00,,,0.00,Weather View 32 v70,2013-09-09 05:07:00,
2013-09-08 22:12:00,68.0,55.8,28.45,South,180,8.0,15.0,65,0.00,,,0.00,Weather View 32 v70,2013-09-09 05:12:00,
2013-09-08 22:17:00,68.0,55.8,28.45,South,180,2.0,15.0,65,0.00,,,0.00,Weather View 32 v70,2013-09-09 05:17:00,
2013-09-08 22:22:00,67.0,55.2,28.45,SSW,202,7.0,13.0,66,0.00,,,0.00,Weather View 32 v70,2013-09-09 05:22:00,
2013-09-08 22:27:00,67.0,54.8,28.45,SSW,202,6.0,13.0,65,0.00,,,0.00,Weather View 32 v70,2013-09-09 05:27:00,
2013-09-08 22:32:00,67.0,55.2,28.45,SE,135,6.0,13.0,66,0.00,,,0.00,Weather View 32 v70,2013-09-09 05:32:00,
2013-09-08 22:37:00,67.0,55.2,28.46,SSW,202,6.0,13.0,66,0.00,,,0.00,Weather View 32 v70,2013-09-09 05:37:00,
2013-09-08 22:42:00,67.0,55.2,28.46,WNW,292,7.0,13.0,66,0.00,,,0.00,Weather View 32 v70,2013-09-09 05:42:00,
2013-09-08 22:47:00,67.0,55.6,28.45,South,180,3.0,13.0,67,0.00,,,0.00,Weather View 32 v70,2013-09-09 05:47:00,
2013-09-08 22:52:00,67.0,56.1,28.45,SSW,202,6.0,13.0,68,0.00,,,0.00,Weather View 32 v70,2013-09-09 05:52:00,
2013-09-08 22:57:00,67.0,56.1,28.45,South,180,4.0,13.0,68,0.00,,,0.00,Weather View 32 v70,2013-09-09 05:57:00,
2013-09-08 23:02:00,66.0,55.5,28.45,South,180,10.0,13.0,69,0.00,,,0.00,Weather View 32 v70,2013-09-09 06:02:00,
2013-09-08 23:07:00,66.0,55.9,28.46,SSW,202,4.0,13.0,70,0.00,,,0.00,Weather View 32 v70,2013-09-09 06:07:00,
2013-09-08 23:12:00,66.0,56.3,28.46,South,180,6.0,13.0,71,0.00,,,0.00,Weather View 32 v70,2013-09-09 06:12:00,
2013-09-08 23:17:00,66.0,56.7,28.46,SSW,202,4.0,13.0,72,0.00,,,0.00,Weather View 32 v70,2013-09-09 06:17:00,
2013-09-08 23:22:00,65.0,55.7,28.46,South,180,4.0,13.0,72,0.00,,,0.00,Weather View 32 v70,2013-09-09 06:22:00,
2013-09-08 23:27:00,65.0,55.7,28.46,SW,225,6.0,13.0,72,0.00,,,0.00,Weather View 32 v70,2013-09-09 06:27:00,
2013-09-08 23:32:00,65.0,55.7,28.46,SSW,202,4.0,10.0,72,0.00,,,0.00,Weather View 32 v70,2013-09-09 06:32:00,
2013-09-08 23:37:00,65.0,55.7,28.46,South,180,3.0,10.0,72,0.00,,,0.00,Weather View 32 v70,2013-09-09 06:37:00,
2013-09-08 23:42:00,65.0,55.7,28.46,SW,225,0.0,10.0,72,0.00,,,0.00,Weather View 32 v70,2013-09-09 06:42:00,
2013-09-08 23:47:00,65.0,55.7,28.46,SSW,202,6.0,10.0,72,0.00,,,0.00,Weather View 32 v70,2013-09-09 06:47:00,
2013-09-08 23:52:00,65.0,55.7,28.46,SSW,202,5.0,10.0,72,0.00,,,0.00,Weather View 32 v70,2013-09-09 06:52:00,
2013-09-08 23:57:00,65.0,56.1,28.46,WSW,247,3.0,10.0,73,0.00,,,0.00,Weather View 32 v70,2013-09-09 06:57:00,